Year,Month,Day,Hour,Minute,Value (Times are PST for temperature in C)
2014,09,15,00,00,16.30
2014,09,15,00,01,16.20
2014,09,15,00,02,16.20
2014,09,15,00,03,16.20
2014,09,15,00,04,16.20
2014,09,15,00,05,16.10
2014,09,15,00,06,16.10
2014,09,15,00,07,16.10
2014,09,15,00,08,16.00
2014,09,15,00,09,16.00
2014,09,15,00,10,16.00
2014,09,15,00,11,15.90
2014,09,15,00,12,15.90
2014,09,15,00,13,15.90
2014,09,15,00,14,15.80
2014,09,15,00,15,15.80
2014,09,15,00,16,15.80
2014,09,15,00,17,15.80
2014,09,15,00,18,15.80
2014,09,15,00,19,15.70
2014,09,15,00,20,15.70
2014,09,15,00,21,15.70
2014,09,15,00,22,15.70
2014,09,15,00,23,15.70
2014,09,15,00,24,15.70
2014,09,15,00,25,15.70
2014,09,15,00,26,15.70
2014,09,15,00,27,15.70
2014,09,15,00,28,15.70
2014,09,15,00,29,15.70
2014,09,15,00,30,15.70
2014,09,15,00,31,15.70
2014,09,15,00,32,15.70
2014,09,15,00,33,15.70
2014,09,15,00,34,15.80
2014,09,15,00,35,15.80
2014,09,15,00,36,15.90
2014,09,15,00,37,16.00
2014,09,15,00,38,16.00
2014,09,15,00,39,16.10
2014,09,15,00,40,16.20
2014,09,15,00,41,16.20
2014,09,15,00,42,16.20
2014,09,15,00,43,16.30
2014,09,15,00,44,16.30
2014,09,15,00,45,16.30
2014,09,15,00,46,16.30
2014,09,15,00,47,16.30
2014,09,15,00,48,16.30
2014,09,15,00,49,16.30
2014,09,15,00,50,16.30
2014,09,15,00,51,16.30
2014,09,15,00,52,16.30
2014,09,15,00,53,16.20
2014,09,15,00,54,16.20
2014,09,15,00,55,16.10
2014,09,15,00,56,16.10
2014,09,15,00,57,16.10
2014,09,15,00,58,16.00
2014,09,15,00,59,15.90
2014,09,15,01,00,15.90
2014,09,15,01,01,15.90
2014,09,15,01,02,15.80
2014,09,15,01,03,15.80
2014,09,15,01,04,15.70
2014,09,15,01,05,15.70
2014,09,15,01,06,15.60
2014,09,15,01,07,15.60
2014,09,15,01,08,15.50
2014,09,15,01,09,15.60
2014,09,15,01,10,15.60
2014,09,15,01,11,15.60
2014,09,15,01,12,15.70
2014,09,15,01,13,15.90
2014,09,15,01,14,16.10
2014,09,15,01,15,16.20
2014,09,15,01,16,16.30
2014,09,15,01,17,16.40
2014,09,15,01,18,16.50
2014,09,15,01,19,16.50
2014,09,15,01,20,16.60
2014,09,15,01,21,16.80
2014,09,15,01,22,16.80
2014,09,15,01,23,16.80
2014,09,15,01,24,16.80
2014,09,15,01,25,16.80
2014,09,15,01,26,16.80
2014,09,15,01,27,16.70
2014,09,15,01,28,16.70
2014,09,15,01,29,16.70
2014,09,15,01,30,16.80
2014,09,15,01,31,16.80
2014,09,15,01,32,16.80
2014,09,15,01,33,16.70
2014,09,15,01,34,16.70
2014,09,15,01,35,16.70
2014,09,15,01,36,16.70
2014,09,15,01,37,16.60
2014,09,15,01,38,16.60
2014,09,15,01,39,16.50
2014,09,15,01,40,16.40
2014,09,15,01,41,16.30
2014,09,15,01,42,16.30
2014,09,15,01,43,16.20
2014,09,15,01,44,16.10
2014,09,15,01,45,16.10
2014,09,15,01,46,16.00
2014,09,15,01,47,15.90
2014,09,15,01,48,15.90
2014,09,15,01,49,15.90
2014,09,15,01,50,15.80
2014,09,15,01,51,15.80
2014,09,15,01,52,15.70
2014,09,15,01,53,15.70
2014,09,15,01,54,15.70
2014,09,15,01,55,15.80
2014,09,15,01,56,15.80
2014,09,15,01,57,15.90
2014,09,15,01,58,16.10
2014,09,15,01,59,16.20
2014,09,15,02,00,16.30
2014,09,15,02,01,16.40
2014,09,15,02,02,16.50
2014,09,15,02,03,16.60
2014,09,15,02,04,16.60
2014,09,15,02,05,16.70
2014,09,15,02,06,16.80
2014,09,15,02,07,16.80
2014,09,15,02,08,16.90
2014,09,15,02,09,17.00
2014,09,15,02,10,17.10
2014,09,15,02,11,17.10
2014,09,15,02,12,17.10
2014,09,15,02,13,17.00
2014,09,15,02,14,17.00
2014,09,15,02,15,16.90
2014,09,15,02,16,16.80
2014,09,15,02,17,16.60
2014,09,15,02,18,16.60
2014,09,15,02,19,16.50
2014,09,15,02,20,16.50
2014,09,15,02,21,16.50
2014,09,15,02,22,16.50
2014,09,15,02,23,16.60
2014,09,15,02,24,16.50
2014,09,15,02,25,16.50
2014,09,15,02,26,16.40
2014,09,15,02,27,16.20
2014,09,15,02,28,16.20
2014,09,15,02,29,16.20
2014,09,15,02,30,16.20
2014,09,15,02,31,16.30
2014,09,15,02,32,16.40
2014,09,15,02,33,16.40
2014,09,15,02,34,16.40
2014,09,15,02,35,16.40
2014,09,15,02,36,16.40
2014,09,15,02,37,16.40
2014,09,15,02,38,16.40
2014,09,15,02,39,16.40
2014,09,15,02,40,16.40
2014,09,15,02,41,16.30
2014,09,15,02,42,16.30
2014,09,15,02,43,16.20
2014,09,15,02,44,16.10
2014,09,15,02,45,16.10
2014,09,15,02,46,16.10
2014,09,15,02,47,16.00
2014,09,15,02,48,16.00
2014,09,15,02,49,16.00
2014,09,15,02,50,16.00
2014,09,15,02,51,16.00
2014,09,15,02,52,15.90
2014,09,15,02,53,15.80
2014,09,15,02,54,15.80
2014,09,15,02,55,15.80
2014,09,15,02,56,15.70
2014,09,15,02,57,15.70
2014,09,15,02,58,15.70
2014,09,15,02,59,15.70
2014,09,15,03,00,15.60
2014,09,15,03,01,15.60
2014,09,15,03,02,15.50
2014,09,15,03,03,15.50
2014,09,15,03,04,15.40
2014,09,15,03,05,15.40
2014,09,15,03,06,15.40
2014,09,15,03,07,15.50
2014,09,15,03,08,15.50
2014,09,15,03,09,15.60
2014,09,15,03,10,15.60
2014,09,15,03,11,15.70
2014,09,15,03,12,15.80
2014,09,15,03,13,15.80
2014,09,15,03,14,15.80
2014,09,15,03,15,15.80
2014,09,15,03,16,15.80
2014,09,15,03,17,15.70
2014,09,15,03,18,15.70
2014,09,15,03,19,15.70
2014,09,15,03,20,15.60
2014,09,15,03,21,15.50
2014,09,15,03,22,15.50
2014,09,15,03,23,15.40
2014,09,15,03,24,15.30
2014,09,15,03,25,15.20
2014,09,15,03,26,15.20
2014,09,15,03,27,15.20
2014,09,15,03,28,15.10
2014,09,15,03,29,15.10
2014,09,15,03,30,15.00
2014,09,15,03,31,15.00
2014,09,15,03,32,15.00
2014,09,15,03,33,15.00
2014,09,15,03,34,15.00
2014,09,15,03,35,14.90
2014,09,15,03,36,14.90
2014,09,15,03,37,14.90
2014,09,15,03,38,14.90
2014,09,15,03,39,14.80
2014,09,15,03,40,14.80
2014,09,15,03,41,14.70
2014,09,15,03,42,14.70
2014,09,15,03,43,14.70
2014,09,15,03,44,14.70
2014,09,15,03,45,14.60
2014,09,15,03,46,14.60
2014,09,15,03,47,14.60
2014,09,15,03,48,14.60
2014,09,15,03,49,14.60
2014,09,15,03,50,14.60
2014,09,15,03,51,14.60
2014,09,15,03,52,14.60
2014,09,15,03,53,14.60
2014,09,15,03,54,14.60
2014,09,15,03,55,14.60
2014,09,15,03,56,14.60
2014,09,15,03,57,14.60
2014,09,15,03,58,14.60
2014,09,15,03,59,14.70
2014,09,15,04,00,14.70
2014,09,15,04,01,14.80
2014,09,15,04,02,14.80
2014,09,15,04,03,14.90
2014,09,15,04,04,14.90
2014,09,15,04,05,14.90
2014,09,15,04,06,14.90
2014,09,15,04,07,14.90
2014,09,15,04,08,14.90
2014,09,15,04,09,14.80
2014,09,15,04,10,14.80
2014,09,15,04,11,14.70
2014,09,15,04,12,14.70
2014,09,15,04,13,14.60
2014,09,15,04,14,14.60
2014,09,15,04,15,14.50
2014,09,15,04,16,14.50
2014,09,15,04,17,14.40
2014,09,15,04,18,14.40
2014,09,15,04,19,14.30
2014,09,15,04,20,14.30
2014,09,15,04,21,14.20
2014,09,15,04,22,14.20
2014,09,15,04,23,14.10
2014,09,15,04,24,14.10
2014,09,15,04,25,14.00
2014,09,15,04,26,14.00
2014,09,15,04,27,13.90
2014,09,15,04,28,13.90
2014,09,15,04,29,13.80
2014,09,15,04,30,13.80
2014,09,15,04,31,13.80
2014,09,15,04,32,13.80
2014,09,15,04,33,13.70
2014,09,15,04,34,13.70
2014,09,15,04,35,13.70
2014,09,15,04,36,13.60
2014,09,15,04,37,13.60
2014,09,15,04,38,13.60
2014,09,15,04,39,13.50
2014,09,15,04,40,13.50
2014,09,15,04,41,13.40
2014,09,15,04,42,13.40
2014,09,15,04,43,13.40
2014,09,15,04,44,13.40
2014,09,15,04,45,13.30
2014,09,15,04,46,13.30
2014,09,15,04,47,13.30
2014,09,15,04,48,13.40
2014,09,15,04,49,13.40
2014,09,15,04,50,13.40
2014,09,15,04,51,13.40
2014,09,15,04,52,13.40
2014,09,15,04,53,13.50
2014,09,15,04,54,13.50
2014,09,15,04,55,13.50
2014,09,15,04,56,13.50
2014,09,15,04,57,13.50
2014,09,15,04,58,13.50
2014,09,15,04,59,13.50
2014,09,15,05,00,13.40
2014,09,15,05,01,13.40
2014,09,15,05,02,13.40
2014,09,15,05,03,13.40
2014,09,15,05,04,13.40
2014,09,15,05,05,13.40
2014,09,15,05,06,13.40
2014,09,15,05,07,13.40
2014,09,15,05,08,13.40
2014,09,15,05,09,13.40
2014,09,15,05,10,13.30
2014,09,15,05,11,13.30
2014,09,15,05,12,13.30
2014,09,15,05,13,13.30
2014,09,15,05,14,13.30
2014,09,15,05,15,13.30
2014,09,15,05,16,13.30
2014,09,15,05,17,13.20
2014,09,15,05,18,13.20
2014,09,15,05,19,13.20
2014,09,15,05,20,13.20
2014,09,15,05,21,13.20
2014,09,15,05,22,13.10
2014,09,15,05,23,13.10
2014,09,15,05,24,13.10
2014,09,15,05,25,13.00
2014,09,15,05,26,13.00
2014,09,15,05,27,13.00
2014,09,15,05,28,12.90
2014,09,15,05,29,12.90
2014,09,15,05,30,12.90
2014,09,15,05,31,12.90
2014,09,15,05,32,12.90
2014,09,15,05,33,12.80
2014,09,15,05,34,12.80
2014,09,15,05,35,12.80
2014,09,15,05,36,12.80
2014,09,15,05,37,12.80
2014,09,15,05,38,12.80
2014,09,15,05,39,12.80
2014,09,15,05,40,12.80
2014,09,15,05,41,12.70
2014,09,15,05,42,12.70
2014,09,15,05,43,12.70
2014,09,15,05,44,12.70
2014,09,15,05,45,12.70
2014,09,15,05,46,12.70
2014,09,15,05,47,12.70
2014,09,15,05,48,12.60
2014,09,15,05,49,12.60
2014,09,15,05,50,12.60
2014,09,15,05,51,12.60
2014,09,15,05,52,12.60
2014,09,15,05,53,12.60
2014,09,15,05,54,12.50
2014,09,15,05,55,12.50
2014,09,15,05,56,12.50
2014,09,15,05,57,12.50
2014,09,15,05,58,12.50
2014,09,15,05,59,12.40
2014,09,15,06,00,12.40
2014,09,15,06,01,12.40
2014,09,15,06,02,12.40
2014,09,15,06,03,12.40
2014,09,15,06,04,12.40
2014,09,15,06,05,12.40
2014,09,15,06,06,12.40
2014,09,15,06,07,12.40
2014,09,15,06,08,12.30
2014,09,15,06,09,12.30
2014,09,15,06,10,12.30
2014,09,15,06,11,12.40
2014,09,15,06,12,12.30
2014,09,15,06,13,12.30
2014,09,15,06,14,12.30
2014,09,15,06,15,12.30
2014,09,15,06,16,12.30
2014,09,15,06,17,12.30
2014,09,15,06,18,12.30
2014,09,15,06,19,12.30
2014,09,15,06,20,12.30
2014,09,15,06,21,12.30
2014,09,15,06,22,12.30
2014,09,15,06,23,12.30
2014,09,15,06,24,12.30
2014,09,15,06,25,12.30
2014,09,15,06,26,12.30
2014,09,15,06,27,12.30
2014,09,15,06,28,12.30
2014,09,15,06,29,12.30
2014,09,15,06,30,12.30
2014,09,15,06,31,12.30
2014,09,15,06,32,12.30
2014,09,15,06,33,12.30
2014,09,15,06,34,12.40
2014,09,15,06,35,12.30
2014,09,15,06,36,12.30
2014,09,15,06,37,12.30
2014,09,15,06,38,12.30
2014,09,15,06,39,12.30
2014,09,15,06,40,12.40
2014,09,15,06,41,12.40
2014,09,15,06,42,12.40
2014,09,15,06,43,12.40
2014,09,15,06,44,12.40
2014,09,15,06,45,12.40
2014,09,15,06,46,12.40
2014,09,15,06,47,12.40
2014,09,15,06,48,12.40
2014,09,15,06,49,12.40
2014,09,15,06,50,12.40
2014,09,15,06,51,12.40
2014,09,15,06,52,12.40
2014,09,15,06,53,12.40
2014,09,15,06,54,12.30
2014,09,15,06,55,12.30
2014,09,15,06,56,12.30
2014,09,15,06,57,12.30
2014,09,15,06,58,12.30
2014,09,15,06,59,12.30
2014,09,15,07,00,12.20
2014,09,15,07,01,12.20
2014,09,15,07,02,12.20
2014,09,15,07,03,12.20
2014,09,15,07,04,12.20
2014,09,15,07,05,12.10
2014,09,15,07,06,12.10
2014,09,15,07,07,12.10
2014,09,15,07,08,12.10
2014,09,15,07,09,12.00
2014,09,15,07,10,12.00
2014,09,15,07,11,12.00
2014,09,15,07,12,11.90
2014,09,15,07,13,11.90
2014,09,15,07,14,11.90
2014,09,15,07,15,11.90
2014,09,15,07,16,11.80
2014,09,15,07,17,11.80
2014,09,15,07,18,11.80
2014,09,15,07,19,11.80
2014,09,15,07,20,11.80
2014,09,15,07,21,11.80
2014,09,15,07,22,11.80
2014,09,15,07,23,11.70
2014,09,15,07,24,11.70
2014,09,15,07,25,11.70
2014,09,15,07,26,11.70
2014,09,15,07,27,11.70
2014,09,15,07,28,11.70
2014,09,15,07,29,11.70
2014,09,15,07,30,11.70
2014,09,15,07,31,11.60
2014,09,15,07,32,11.70
2014,09,15,07,33,11.60
2014,09,15,07,34,11.60
2014,09,15,07,35,11.60
2014,09,15,07,36,11.60
2014,09,15,07,37,11.60
2014,09,15,07,38,11.60
2014,09,15,07,39,11.60
2014,09,15,07,40,11.60
2014,09,15,07,41,11.60
2014,09,15,07,42,11.60
2014,09,15,07,43,11.60
2014,09,15,07,44,11.70
2014,09,15,07,45,11.70
2014,09,15,07,46,11.70
2014,09,15,07,47,11.70
2014,09,15,07,48,11.80
2014,09,15,07,49,11.80
2014,09,15,07,50,11.80
2014,09,15,07,51,11.80
2014,09,15,07,52,11.80
2014,09,15,07,53,11.80
2014,09,15,07,54,11.90
2014,09,15,07,55,11.90
2014,09,15,07,56,11.90
2014,09,15,07,57,12.00
2014,09,15,07,58,12.00
2014,09,15,07,59,12.10
2014,09,15,08,00,12.10
2014,09,15,08,01,12.10
2014,09,15,08,02,12.20
2014,09,15,08,03,12.20
2014,09,15,08,04,12.30
2014,09,15,08,05,12.40
2014,09,15,08,06,12.50
2014,09,15,08,07,12.60
2014,09,15,08,08,12.70
2014,09,15,08,09,12.80
2014,09,15,08,10,13.00
2014,09,15,08,11,13.10
2014,09,15,08,12,13.30
2014,09,15,08,13,13.40
2014,09,15,08,14,13.50
2014,09,15,08,15,13.70
2014,09,15,08,16,13.80
2014,09,15,08,17,13.90
2014,09,15,08,18,14.00
2014,09,15,08,19,14.10
2014,09,15,08,20,14.20
2014,09,15,08,21,14.30
2014,09,15,08,22,14.40
2014,09,15,08,23,14.50
2014,09,15,08,24,14.60
2014,09,15,08,25,14.70
2014,09,15,08,26,14.70
2014,09,15,08,27,14.80
2014,09,15,08,28,14.90
2014,09,15,08,29,15.00
2014,09,15,08,30,15.10
2014,09,15,08,31,15.20
2014,09,15,08,32,15.30
2014,09,15,08,33,15.40
2014,09,15,08,34,15.50
2014,09,15,08,35,15.60
2014,09,15,08,36,15.70
2014,09,15,08,37,15.80
2014,09,15,08,38,15.90
2014,09,15,08,39,16.00
2014,09,15,08,40,16.10
2014,09,15,08,41,16.20
2014,09,15,08,42,16.30
2014,09,15,08,43,16.40
2014,09,15,08,44,16.50
2014,09,15,08,45,16.60
2014,09,15,08,46,16.70
2014,09,15,08,47,16.80
2014,09,15,08,48,16.80
2014,09,15,08,49,16.90
2014,09,15,08,50,17.00
2014,09,15,08,51,17.00
2014,09,15,08,52,17.10
2014,09,15,08,53,17.10
2014,09,15,08,54,17.10
2014,09,15,08,55,17.10
2014,09,15,08,56,17.10
2014,09,15,08,57,17.10
2014,09,15,08,58,17.10
2014,09,15,08,59,17.00
2014,09,15,09,00,17.00
2014,09,15,09,01,17.00
2014,09,15,09,02,16.90
2014,09,15,09,03,16.90
2014,09,15,09,04,16.90
2014,09,15,09,05,16.90
2014,09,15,09,06,16.80
2014,09,15,09,07,16.80
2014,09,15,09,08,16.80
2014,09,15,09,09,16.80
2014,09,15,09,10,16.70
2014,09,15,09,11,16.70
2014,09,15,09,12,16.70
2014,09,15,09,13,16.70
2014,09,15,09,14,16.70
2014,09,15,09,15,16.70
2014,09,15,09,16,16.70
2014,09,15,09,17,16.80
2014,09,15,09,18,16.80
2014,09,15,09,19,16.80
2014,09,15,09,20,16.80
2014,09,15,09,21,16.90
2014,09,15,09,22,16.90
2014,09,15,09,23,17.00
2014,09,15,09,24,17.10
2014,09,15,09,25,17.10
2014,09,15,09,26,17.20
2014,09,15,09,27,17.20
2014,09,15,09,28,17.30
2014,09,15,09,29,17.40
2014,09,15,09,30,17.40
2014,09,15,09,31,17.50
2014,09,15,09,32,17.60
2014,09,15,09,33,17.60
2014,09,15,09,34,17.70
2014,09,15,09,35,17.70
2014,09,15,09,36,17.70
2014,09,15,09,37,17.70
2014,09,15,09,38,17.80
2014,09,15,09,39,17.80
2014,09,15,09,40,17.80
2014,09,15,09,41,17.80
2014,09,15,09,42,17.80
2014,09,15,09,43,17.90
2014,09,15,09,44,17.90
2014,09,15,09,45,17.90
2014,09,15,09,46,18.00
2014,09,15,09,47,18.00
2014,09,15,09,48,18.10
2014,09,15,09,49,18.10
2014,09,15,09,50,18.20
2014,09,15,09,51,18.30
2014,09,15,09,52,18.30
2014,09,15,09,53,18.40
2014,09,15,09,54,18.40
2014,09,15,09,55,18.50
2014,09,15,09,56,18.60
2014,09,15,09,57,18.60
2014,09,15,09,58,18.70
2014,09,15,09,59,18.80
2014,09,15,10,00,18.80
2014,09,15,10,01,18.90
2014,09,15,10,02,19.00
2014,09,15,10,03,19.10
2014,09,15,10,04,19.20
2014,09,15,10,05,19.30
2014,09,15,10,06,19.40
2014,09,15,10,07,19.50
2014,09,15,10,08,19.60
2014,09,15,10,09,19.70
2014,09,15,10,10,19.80
2014,09,15,10,11,19.80
2014,09,15,10,12,19.80
2014,09,15,10,13,19.80
2014,09,15,10,14,19.90
2014,09,15,10,15,19.90
2014,09,15,10,16,20.00
2014,09,15,10,17,20.10
2014,09,15,10,18,20.20
2014,09,15,10,19,20.20
2014,09,15,10,20,20.20
2014,09,15,10,21,20.30
2014,09,15,10,22,20.20
2014,09,15,10,23,20.20
2014,09,15,10,24,20.20
2014,09,15,10,25,20.20
2014,09,15,10,26,20.20
2014,09,15,10,27,20.20
2014,09,15,10,28,20.20
2014,09,15,10,29,20.20
2014,09,15,10,30,20.20
2014,09,15,10,31,20.30
2014,09,15,10,32,20.30
2014,09,15,10,33,20.40
2014,09,15,10,34,20.40
2014,09,15,10,35,20.40
2014,09,15,10,36,20.50
2014,09,15,10,37,20.50
2014,09,15,10,38,20.60
2014,09,15,10,39,20.60
2014,09,15,10,40,20.60
2014,09,15,10,41,20.70
2014,09,15,10,42,20.70
2014,09,15,10,43,20.70
2014,09,15,10,44,20.70
2014,09,15,10,45,20.70
2014,09,15,10,46,20.60
2014,09,15,10,47,20.60
2014,09,15,10,48,20.60
2014,09,15,10,49,20.70
2014,09,15,10,50,20.70
2014,09,15,10,51,20.70
2014,09,15,10,52,20.70
2014,09,15,10,53,20.80
2014,09,15,10,54,20.80
2014,09,15,10,55,20.80
2014,09,15,10,56,20.80
2014,09,15,10,57,20.80
2014,09,15,10,58,20.80
2014,09,15,10,59,20.90
2014,09,15,11,00,20.90
2014,09,15,11,01,21.00
2014,09,15,11,02,21.00
2014,09,15,11,03,21.10
2014,09,15,11,04,21.10
2014,09,15,11,05,21.10
2014,09,15,11,06,21.10
2014,09,15,11,07,21.10
2014,09,15,11,08,21.10
2014,09,15,11,09,21.10
2014,09,15,11,10,21.10
2014,09,15,11,11,21.20
2014,09,15,11,12,21.10
2014,09,15,11,13,21.10
2014,09,15,11,14,21.00
2014,09,15,11,15,20.90
2014,09,15,11,16,20.90
2014,09,15,11,17,20.90
2014,09,15,11,18,20.80
2014,09,15,11,19,20.80
2014,09,15,11,20,20.80
2014,09,15,11,21,20.80
2014,09,15,11,22,20.80
2014,09,15,11,23,20.80
2014,09,15,11,24,20.90
2014,09,15,11,25,20.90
2014,09,15,11,26,20.90
2014,09,15,11,27,20.90
2014,09,15,11,28,20.90
2014,09,15,11,29,21.00
2014,09,15,11,30,21.10
2014,09,15,11,31,21.20
2014,09,15,11,32,21.20
2014,09,15,11,33,21.20
2014,09,15,11,34,21.20
2014,09,15,11,35,21.20
2014,09,15,11,36,21.20
2014,09,15,11,37,21.20
2014,09,15,11,38,21.30
2014,09,15,11,39,21.30
2014,09,15,11,40,21.30
2014,09,15,11,41,21.30
2014,09,15,11,42,21.40
2014,09,15,11,43,21.30
2014,09,15,11,44,21.30
2014,09,15,11,45,21.30
2014,09,15,11,46,21.30
2014,09,15,11,47,21.30
2014,09,15,11,48,21.40
2014,09,15,11,49,21.40
2014,09,15,11,50,21.40
2014,09,15,11,51,21.40
2014,09,15,11,52,21.40
2014,09,15,11,53,21.40
2014,09,15,11,54,21.50
2014,09,15,11,55,21.50
2014,09,15,11,56,21.50
2014,09,15,11,57,21.50
2014,09,15,11,58,21.50
2014,09,15,11,59,21.60
2014,09,15,12,00,21.60
2014,09,15,12,01,21.60
2014,09,15,12,02,21.60
2014,09,15,12,03,21.60
2014,09,15,12,04,21.70
2014,09,15,12,05,21.70
2014,09,15,12,06,21.70
2014,09,15,12,07,21.70
2014,09,15,12,08,21.70
2014,09,15,12,09,21.80
2014,09,15,12,10,21.80
2014,09,15,12,11,21.90
2014,09,15,12,12,22.00
2014,09,15,12,13,22.10
2014,09,15,12,14,22.20
2014,09,15,12,15,22.20
2014,09,15,12,16,22.20
2014,09,15,12,17,22.30
2014,09,15,12,18,22.30
2014,09,15,12,19,22.30
2014,09,15,12,20,22.40
2014,09,15,12,21,22.40
2014,09,15,12,22,22.40
2014,09,15,12,23,22.30
2014,09,15,12,24,22.30
2014,09,15,12,25,22.20
2014,09,15,12,26,22.20
2014,09,15,12,27,22.10
2014,09,15,12,28,22.00
2014,09,15,12,29,22.00
2014,09,15,12,30,21.90
2014,09,15,12,31,21.90
2014,09,15,12,32,21.90
2014,09,15,12,33,21.90
2014,09,15,12,34,22.00
2014,09,15,12,35,22.10
2014,09,15,12,36,22.10
2014,09,15,12,37,22.10
2014,09,15,12,38,22.10
2014,09,15,12,39,22.10
2014,09,15,12,40,22.10
2014,09,15,12,41,22.10
2014,09,15,12,42,22.20
2014,09,15,12,43,22.20
2014,09,15,12,44,22.20
2014,09,15,12,45,22.20
2014,09,15,12,46,22.20
2014,09,15,12,47,22.20
2014,09,15,12,48,22.20
2014,09,15,12,49,22.30
2014,09,15,12,50,22.30
2014,09,15,12,51,22.30
2014,09,15,12,52,22.40
2014,09,15,12,53,22.40
2014,09,15,12,54,22.40
2014,09,15,12,55,22.40
2014,09,15,12,56,22.50
2014,09,15,12,57,22.60
2014,09,15,12,58,22.60
2014,09,15,12,59,22.70
2014,09,15,13,00,22.70
2014,09,15,13,01,22.80
2014,09,15,13,02,22.80
2014,09,15,13,03,22.80
2014,09,15,13,04,22.90
2014,09,15,13,05,22.90
2014,09,15,13,06,22.90
2014,09,15,13,07,22.90
2014,09,15,13,08,23.00
2014,09,15,13,09,23.00
2014,09,15,13,10,23.10
2014,09,15,13,11,23.20
2014,09,15,13,12,23.20
2014,09,15,13,13,23.30
2014,09,15,13,14,23.40
2014,09,15,13,15,23.60
2014,09,15,13,16,23.80
2014,09,15,13,17,23.90
2014,09,15,13,18,24.00
2014,09,15,13,19,24.10
2014,09,15,13,20,24.20
2014,09,15,13,21,24.20
2014,09,15,13,22,24.30
2014,09,15,13,23,24.30
2014,09,15,13,24,24.40
2014,09,15,13,25,24.50
2014,09,15,13,26,24.60
2014,09,15,13,27,24.70
2014,09,15,13,28,24.80
2014,09,15,13,29,24.80
2014,09,15,13,30,24.80
2014,09,15,13,31,24.80
2014,09,15,13,32,24.80
2014,09,15,13,33,24.80
2014,09,15,13,34,24.80
2014,09,15,13,35,24.90
2014,09,15,13,36,24.90
2014,09,15,13,37,24.90
2014,09,15,13,38,24.90
2014,09,15,13,39,24.80
2014,09,15,13,40,24.80
2014,09,15,13,41,24.80
2014,09,15,13,42,24.80
2014,09,15,13,43,24.70
2014,09,15,13,44,24.70
2014,09,15,13,45,24.70
2014,09,15,13,46,24.70
2014,09,15,13,47,24.70
2014,09,15,13,48,24.70
2014,09,15,13,49,24.80
2014,09,15,13,50,24.80
2014,09,15,13,51,24.90
2014,09,15,13,52,24.90
2014,09,15,13,53,25.00
2014,09,15,13,54,25.10
2014,09,15,13,55,25.10
2014,09,15,13,56,25.00
2014,09,15,13,57,24.90
2014,09,15,13,58,24.70
2014,09,15,13,59,24.40
2014,09,15,14,00,24.30
2014,09,15,14,01,24.10
2014,09,15,14,02,24.00
2014,09,15,14,03,23.80
2014,09,15,14,04,23.70
2014,09,15,14,05,23.60
2014,09,15,14,06,23.50
2014,09,15,14,07,23.40
2014,09,15,14,08,23.40
2014,09,15,14,09,23.40
2014,09,15,14,10,23.40
2014,09,15,14,11,23.40
2014,09,15,14,12,23.50
2014,09,15,14,13,23.50
2014,09,15,14,14,23.60
2014,09,15,14,15,23.70
2014,09,15,14,16,23.80
2014,09,15,14,17,23.80
2014,09,15,14,18,23.80
2014,09,15,14,19,23.80
2014,09,15,14,20,23.80
2014,09,15,14,21,23.80
2014,09,15,14,22,23.80
2014,09,15,14,23,23.80
2014,09,15,14,24,23.80
2014,09,15,14,25,23.80
2014,09,15,14,26,23.80
2014,09,15,14,27,23.80
2014,09,15,14,28,23.80
2014,09,15,14,29,23.80
2014,09,15,14,30,23.80
2014,09,15,14,31,23.80
2014,09,15,14,32,23.90
2014,09,15,14,33,23.90
2014,09,15,14,34,23.90
2014,09,15,14,35,23.90
2014,09,15,14,36,23.80
2014,09,15,14,37,23.80
2014,09,15,14,38,23.80
2014,09,15,14,39,23.80
2014,09,15,14,40,23.80
2014,09,15,14,41,23.80
2014,09,15,14,42,23.80
2014,09,15,14,43,23.80
2014,09,15,14,44,23.80
2014,09,15,14,45,23.80
2014,09,15,14,46,23.80
2014,09,15,14,47,23.80
2014,09,15,14,48,23.80
2014,09,15,14,49,23.80
2014,09,15,14,50,23.80
2014,09,15,14,51,23.80
2014,09,15,14,52,23.80
2014,09,15,14,53,23.90
2014,09,15,14,54,23.90
2014,09,15,14,55,24.00
2014,09,15,14,56,24.00
2014,09,15,14,57,24.10
2014,09,15,14,58,24.20
2014,09,15,14,59,24.20
2014,09,15,15,00,24.20
2014,09,15,15,01,24.20
2014,09,15,15,02,24.20
2014,09,15,15,03,24.30
2014,09,15,15,04,24.30
2014,09,15,15,05,24.30
2014,09,15,15,06,24.40
2014,09,15,15,07,24.40
2014,09,15,15,08,24.50
2014,09,15,15,09,24.60
2014,09,15,15,10,24.70
2014,09,15,15,11,24.70
2014,09,15,15,12,24.80
2014,09,15,15,13,24.80
2014,09,15,15,14,24.90
2014,09,15,15,15,24.90
2014,09,15,15,16,24.90
2014,09,15,15,17,24.90
2014,09,15,15,18,24.90
2014,09,15,15,19,24.90
2014,09,15,15,20,24.90
2014,09,15,15,21,24.90
2014,09,15,15,22,24.90
2014,09,15,15,23,24.80
2014,09,15,15,24,24.80
2014,09,15,15,25,24.80
2014,09,15,15,26,24.80
2014,09,15,15,27,24.90
2014,09,15,15,28,24.90
2014,09,15,15,29,24.90
2014,09,15,15,30,24.80
2014,09,15,15,31,24.80
2014,09,15,15,32,24.80
2014,09,15,15,33,24.80
2014,09,15,15,34,24.80
2014,09,15,15,35,24.80
2014,09,15,15,36,24.70
2014,09,15,15,37,24.80
2014,09,15,15,38,24.80
2014,09,15,15,39,24.80
2014,09,15,15,40,24.80
2014,09,15,15,41,24.80
2014,09,15,15,42,24.80
2014,09,15,15,43,24.90
2014,09,15,15,44,24.90
2014,09,15,15,45,25.00
2014,09,15,15,46,25.10
2014,09,15,15,47,25.10
2014,09,15,15,48,25.10
2014,09,15,15,49,25.20
2014,09,15,15,50,25.20
2014,09,15,15,51,25.20
2014,09,15,15,52,25.20
2014,09,15,15,53,25.20
2014,09,15,15,54,25.20
2014,09,15,15,55,25.20
2014,09,15,15,56,25.20
2014,09,15,15,57,25.20
2014,09,15,15,58,25.20
2014,09,15,15,59,25.20
2014,09,15,16,00,25.30
2014,09,15,16,01,25.30
2014,09,15,16,02,25.30
2014,09,15,16,03,25.30
2014,09,15,16,04,25.30
2014,09,15,16,05,25.30
2014,09,15,16,06,25.30
2014,09,15,16,07,25.30
2014,09,15,16,08,25.30
2014,09,15,16,09,25.40
2014,09,15,16,10,25.40
2014,09,15,16,11,25.40
2014,09,15,16,12,25.40
2014,09,15,16,13,25.50
2014,09,15,16,14,25.50
2014,09,15,16,15,25.60
2014,09,15,16,16,25.60
2014,09,15,16,17,25.60
2014,09,15,16,18,25.60
2014,09,15,16,19,25.60
2014,09,15,16,20,25.70
2014,09,15,16,21,25.70
2014,09,15,16,22,25.70
2014,09,15,16,23,25.80
2014,09,15,16,24,25.80
2014,09,15,16,25,25.80
2014,09,15,16,26,25.80
2014,09,15,16,27,25.80
2014,09,15,16,28,25.80
2014,09,15,16,29,25.90
2014,09,15,16,30,25.90
2014,09,15,16,31,25.90
2014,09,15,16,32,25.90
2014,09,15,16,33,25.90
2014,09,15,16,34,25.80
2014,09,15,16,35,25.80
2014,09,15,16,36,25.80
2014,09,15,16,37,25.70
2014,09,15,16,38,25.70
2014,09,15,16,39,25.70
2014,09,15,16,40,25.70
2014,09,15,16,41,25.70
2014,09,15,16,42,25.70
2014,09,15,16,43,25.60
2014,09,15,16,44,25.60
2014,09,15,16,45,25.60
2014,09,15,16,46,25.60
2014,09,15,16,47,25.60
2014,09,15,16,48,25.60
2014,09,15,16,49,25.60
2014,09,15,16,50,25.60
2014,09,15,16,51,25.60
2014,09,15,16,52,25.50
2014,09,15,16,53,25.50
2014,09,15,16,54,25.40
2014,09,15,16,55,25.30
2014,09,15,16,56,25.30
2014,09,15,16,57,25.20
2014,09,15,16,58,25.20
2014,09,15,16,59,25.20
2014,09,15,17,00,25.20
2014,09,15,17,01,25.10
2014,09,15,17,02,25.10
2014,09,15,17,03,25.10
2014,09,15,17,04,25.10
2014,09,15,17,05,25.10
2014,09,15,17,06,25.10
2014,09,15,17,07,25.00
2014,09,15,17,08,25.00
2014,09,15,17,09,24.90
2014,09,15,17,10,24.90
2014,09,15,17,11,24.90
2014,09,15,17,12,24.90
2014,09,15,17,13,24.90
2014,09,15,17,14,24.90
2014,09,15,17,15,24.80
2014,09,15,17,16,24.80
2014,09,15,17,17,24.70
2014,09,15,17,18,24.60
2014,09,15,17,19,24.60